Torna al catalogo

CZ-6A DEB

AttivoPO
NORAD 61306·DEBRIS·🇨🇳 China

Lanciato Aug 6, 2024 da Taiyuan Satellite Launch Center

Loading…

Prossimi Passaggi (prossime 24 ore)

TLE

AggiornatoSource: Space-Track

Epoca: Sep 14, 2026, 05:48 UTC

1 61306U 24140TT  26257.24171836  .00003596  00000-0  10083-2 0  9998
2 61306  88.1138 179.3324 0028623  43.0881 317.2556 14.45607430107563

Traccia CZ-6A DEB in tempo reale con AllMySat

Download on the App Store